Location: Roland
(31.1349°N, 85.4372°W)
Time: 11:38:41
(UTC+00:00)

Explorer 11/Cluster Stage 4 - Pass Details

Date: 22 April 2021
Orbit: 467 x 1257 km, 28.8° (Epoch: 15 May)

Event Time Altitude Azimuth Distance (km) Brightness Sun altitude
Exits shadow 09:35:27 10° 164° (SSE) 1,601 8.1 -18.8°
Maximum altitude 09:36:05 10° 154° (SSE) 1,577 8.1 -18.7°
Drops below altitude 10° 09:36:46 10° 143° (SE) 1,603 8.3 -18.6°
Sets 09:40:42 0° 101° (E) 2,516 10.1 -17.8°
